Regional Weather Roundup
Issued by NWS Midland/Odessa, TX

Skip options and go directly to product.
Home | Oldest Version | Next Version | Current Version | All | Text Only | Save Text | Print | Product List | Glossary On

Skip product version selection by date and time.   
244
ASUS44 KMAF 080501
RWRMAF
MIDLAND AREA WEATHER ROUNDUP
NATIONAL WEATHER SERVICE MIDLAND TX
1100 PM CST WED DEC 07 2016

...IN SOUTHWEST TEXAS AND SOUTHEAST NEW MEXICO...

CITY           SKY/WX    TMP DP  RH WIND       PRES   REMARKS
ALPINE         PTCLDY    45  37  73 NE7       30.25R
ANDREWS        CLOUDY    35  32  89 NE17G25   30.31R WCI  25
ARTESIA        CLOUDY    36  28  75 NE16G23   30.33R WCI  26
BIG SPRING     CLOUDY    37  32  81 N22       30.33R WCI  27
CARLSBAD       CLOUDY    39  33  79 N12       30.31R WCI  32
DRYDEN           N/A     46  44  93 N5        30.19R
FORT STOCKTON  CLOUDY    42  41  96 NE13      30.24R WCI  35
GUAD PASS      MIX PCPN  37  37 100 NE39      30.18R VSB 1/4 WCI  23
HOBBS          CLOUDY    32  28  86 NE21      30.30R WCI  20
MARFA          PTCLDY    46  31  55 NE8       30.18R
MIDLAND AIRPK  CLOUDY    38  32  79 NE20G28   30.32R WCI  28
MIDLAND INTL   CLOUDY    38  32  79 NE18G29   30.29R WCI  28
ODESSA         CLOUDY    38  31  76 NE21G28   30.29R WCI  28
PECOS          CLOUDY    42  37  80 NE13      30.28R WCI  35
PRESIDIO       FAIR      60  32  34 N3        30.08R
SEMINOLE       CLOUDY    34  29  83 NE18G24   30.32R WCI  23
SNYDER         CLOUDY    36  27  69 N16G24    30.36R WCI  26
WINK           MOCLDY    39  33  79 NE18G26   30.27R WCI  30
$$
...OTHER STATIONS IN TEXAS...

CITY           SKY/WX    TMP DP  RH WIND       PRES   REMARKS
ABILENE        CLOUDY    39  30  70 N15G22    30.36R WCI  31
AMARILLO       CLOUDY    21  17  84 N14G22    30.45R WCI   8
AUSTIN         CLOUDY    53  47  79 N17       30.23R
BROWNSVILLE    MOCLDY    73  71  93 CALM      30.03R
CORPUS CHRISTI CLOUDY    61  58  90 NE17      30.08R
DALLAS FTW     CLOUDY    41  36  82 N16       30.34R WCI  33
DEL RIO        CLOUDY    51  48  89 W6        30.17S
EL PASO        CLOUDY    53  35  50 SE8       30.13R
HOUSTON INT    CLOUDY    56  54  93 N9        30.18R
LUBBOCK        CLOUDY    31  18  58 NE22      30.36R WCI  18
SAN ANGELO     CLOUDY    44  39  82 NE20G26   30.28R WCI  36
SAN ANTONIO    CLOUDY    55  49  80 N9        30.19R
WACO           CLOUDY    50  43  77 N10       30.28R
WICHITA FALLS  NOT AVBL
$$
...OTHER LOCATIONS IN NEW MEXICO...

CITY           SKY/WX    TMP DP  RH WIND       PRES   REMARKS
ALAMAGORDO     NOT AVBL
ALBUQUERQUE    CLOUDY    35  17  47 N8        30.21R WCI  29
CANNON AFB     CLOUDY    23  19  82 NE21      30.38R WCI   8
CLOVIS         CLOUDY    23  14  68 NE17      30.38R WCI   9
HOLLOMAN AFB   CLOUDY    48  30  49 S7        30.15R
ROSWELL        CLOUDY    34  18  52 NE16      30.35R WCI  24
RUIDOSO        CLOUDY    25  12  58 SE12      30.27R WCI  14
SANTA FE       CLOUDY    26  13  57 S7        30.20R WCI  18
TRUTH OR CONSE MOCLDY    45  22  40 N10       30.14R WCI  40
TUCUMCARI      CLOUDY    24  14  65 NE14      30.42R WCI  12
$$

  • National Weather Service
  • Southern Region Headquarters
  • 819 Taylor Street, Room 10A06
  • Fort Worth, TX 76102
  • Page Author: NWS Fort Worth
  • Web Master: SR-SRH.Webmaster@noaa.gov
  •  
  • Page last modified: 30-Sep-2016 6:36 PM UTC
USA.gov is the U.S. government's official web portal to all federal, state and local government web resources and services.